TimeMDT,TemperatureF,Dew PointF,Humidity,Sea Level PressureIn,VisibilityMPH,Wind Direction,Wind SpeedMPH,Gust SpeedMPH,PrecipitationIn,Events,Conditions,WindDirDegrees,DateUTC
12:53 AM,80.1,43.0,27,29.67,10.0,SSE,21.9,29.9,N/A,,Clear,160,2013-07-08 06:53:00
1:53 AM,78.1,44.1,30,29.69,10.0,SSE,19.6,31.1,N/A,,Clear,160,2013-07-08 07:53:00
2:53 AM,73.9,45.0,35,29.70,10.0,SSE,13.8,-,N/A,,Clear,160,2013-07-08 08:53:00
3:53 AM,77.0,45.0,32,29.70,10.0,South,16.1,-,N/A,,Clear,170,2013-07-08 09:53:00
4:53 AM,73.0,45.0,37,29.72,10.0,South,15.0,-,N/A,,Clear,170,2013-07-08 10:53:00
5:53 AM,73.0,45.0,37,29.75,10.0,South,12.7,-,N/A,,Clear,190,2013-07-08 11:53:00
6:53 AM,73.0,45.0,37,29.78,10.0,SSW,15.0,20.7,N/A,,Clear,200,2013-07-08 12:53:00
7:53 AM,73.9,45.0,35,29.82,10.0,SSW,11.5,-,N/A,,Clear,200,2013-07-08 13:53:00
8:53 AM,79.0,42.1,27,29.83,10.0,SSW,9.2,-,N/A,,Clear,200,2013-07-08 14:53:00
9:53 AM,84.0,37.9,19,29.83,10.0,SSW,8.1,-,N/A,,Clear,200,2013-07-08 15:53:00
10:53 AM,87.1,37.0,17,29.84,10.0,NW,6.9,-,N/A,,Clear,310,2013-07-08 16:53:00
11:53 AM,88.0,41.0,19,29.84,10.0,NW,8.1,-,N/A,,Clear,320,2013-07-08 17:53:00
12:53 PM,89.1,42.1,19,29.85,10.0,WNW,12.7,-,N/A,,Clear,300,2013-07-08 18:53:00
1:53 PM,90.0,43.0,19,29.85,10.0,NW,12.7,-,N/A,,Clear,320,2013-07-08 19:53:00
2:53 PM,93.0,36.0,13,29.84,10.0,NNW,10.4,-,N/A,,Clear,340,2013-07-08 20:53:00
3:53 PM,95.0,37.0,13,29.82,10.0,NNW,9.2,-,N/A,,Clear,330,2013-07-08 21:53:00
4:53 PM,95.0,35.1,12,29.82,10.0,Variable,6.9,-,N/A,,Clear,0,2013-07-08 22:53:00
5:53 PM,93.0,36.0,13,29.81,10.0,NW,8.1,-,N/A,,Clear,320,2013-07-08 23:53:00
6:53 PM,91.9,36.0,14,29.81,10.0,Variable,4.6,-,N/A,,Clear,0,2013-07-09 00:53:00
7:53 PM,90.0,39.0,17,29.82,10.0,NW,6.9,-,N/A,,Clear,320,2013-07-09 01:53:00
8:53 PM,84.0,37.9,19,29.83,10.0,Calm,Calm,-,N/A,,Clear,0,2013-07-09 02:53:00
9:53 PM,68.0,54.0,61,29.87,10.0,SW,4.6,-,N/A,,Clear,220,2013-07-09 03:53:00
10:53 PM,72.0,46.0,40,29.88,10.0,SW,8.1,-,N/A,,Clear,220,2013-07-09 04:53:00
11:53 PM,75.0,41.0,29,29.88,10.0,SSW,8.1,-,N/A,,Clear,210,2013-07-09 05:53:00